CZ-6A DEB

Satellite information

Favourite Embed

Satellite Type and Status

DEBRISIN ORBIT

Key statistics

Satellite CZ-6A DEB at a glance.

Uptime

274

Days in orbit

Revolutions

≈ 14.3

Per day

Orbit

LEO

Low Earth Orbit

Inclination

89.0

Latest

Satellite identification and parameters

Extended collection of information and parameters for CZ-6A DEB.

Object identification

Identified? True

Debris? True

Object name: CZ-6A DEB

International designator: 2024-140TW

Object number (NORAD): 61309

Object ID (CCSDS): 61309

Country: PEOPLES REPUBLIC OF CHINA (PRC)

Current information (Y/N): Y

RCS size: SMALL

Orbital parameters

Period: 100.883 minutes

Inclination: 88.9824 deg

SMA: 7178.577 km

Apoapsis: 818.182 km

Periapsis: 782.702 km

RAAN: 319.6025 deg

Eccentricy: 0.0024712

Argument of periapsis: 44.7192 deg

Mean anomaly: 315.5989 deg

Mean motion: 14.27398413 rev/day

Mean motion (dot): 0.00003809 rev/day2

B* drag term: 0.0015433 1/REarth

Two-line elements (TLE)

Creation date: May 6, 2025, 10:56 p.m.

Reference frame: TEME

Reference center: EARTH

Epoch: May 6, 2025, 7:38 p.m. UTC

TLE line 0: 0 CZ-6A DEB

TLE line 1: 1 61309U 24140TW 25126.81828078 .00003809 00000-0 15433-2 0 9996

TLE line 2: 2 61309 88.9824 319.6025 0024712 44.7192 315.5989 14.27398413 35885

Live tracking on map

Real-time ground track for satellite CZ-6A DEB.

In-orbit conjunctions

A list of the most updated potential collisions computed for object CZ-6A DEB.

Target Orbit TCA Probability of collision Miss distance Type
DMSP 5D-2 F13 DEB SSO 2025-02-25 00:15:23 0.0001094071 487.0 (m) DEBRIS
CZ-6A DEB LEO 2025-02-21 15:28:57 0.0001757864 844.0 (m) DEBRIS
CZ-6A DEB LEO 2024-11-16 09:46:34 0.0006694541 230.0 (m) DEBRIS

Associated space launch

18 Low Earth Orbit communication satellites with Ku, Q and V band payloads for the G60 constellation operated by Shanghai Spacecom Satellite Technology (SSST) with funding backed by the Shanghai local government. Initial constellation will consist of 1296 satellites by 2027 with long term plans to expand it to 12000 satellites.

CZ-6A DEB was lifted into orbit during the mission ‘Long March 6A | G60 Polar Group 01’, on board a Long March 6A space rocket.

The launch took place on Aug. 6, 2024, 6:42 a.m. from Launch Complex 9A.

For more information about the launch, click the button.

Launch to space Long March 6A | G60 Polar Group 01
Long March 6A | G60 Polar Group 01

Agency: N/A

Status: Launch Successful

Launch date: Aug. 6, 2024, 6:42 a.m. UTC

Rocket: Long March 6A

Launch pad: Launch Complex 9A

Location: Taiyuan Satellite Launch Center, People's Republic of China

...

Latest news about this satellite

News about space launch
Brightness of first Chinese broadband constellation satellites alarms astronomers

The first satellites of a Chinese broadband constellation are significantly brighter than those of Western systems, posing a new challenge for astronomers.

News about space launch
Chinese rocket stage breaks up into cloud of more than 700 pieces of space debris

HELSINKI — A Chinese Long March 6A rocket’s upper stage has fragmented into a cloud of over 700 pieces of space debris, adding to concerns about long-term orbital safety. China […]

News about space launch
China's Thousand Sails Megaconstellation Kicks Off with Dangerous Debris Field

China's Thousand Sails Megaconstellation Kicks Off with Dangerous Debris Field


Newsletter sign-up

Weekly statistics, charts and insights to help you stay on top of the space industry.